RYR5CN LIBD-LIMC

Flight info

Callsign RYR5CN
Flight time 1h 18m
Altitude 36000
Route PISIP DCT VIE DCT LOMED DCT BEROK DCT MIVKI DCT GOLAS DCT MEBUR
Aircraft B738/M-SDE2E3FGHIRWXY/LB1

Departure

Time 2026-04-21 18:18
Airport Bari Karol Wojtyła International Airport (LIBD)

Arrival

Time 2026-04-21 19:36
Airport Milan Malpensa International Airport (LIMC)
Time Latitude Longitude Altitude Speed Heading
2026-04-21 18:01 41.13676 16.76388 135 ft 0 kts 18°
2026-04-21 18:11 41.13681 16.76391 135 ft 2 kts 26°
2026-04-21 18:12 41.13686 16.76406 135 ft 1 kts 93°
2026-04-21 18:12 41.13677 16.76409 135 ft 2 kts 183°
2026-04-21 18:12 41.13651 16.76409 135 ft 6 kts 174°
2026-04-21 18:12 41.13621 16.76369 135 ft 8 kts 272°
2026-04-21 18:13 41.13600 16.76310 135 ft 9 kts 237°
2026-04-21 18:13 41.13567 16.76220 135 ft 13 kts 248°
2026-04-21 18:13 41.13569 16.76097 135 ft 15 kts 313°
2026-04-21 18:13 41.13634 16.75980 135 ft 17 kts 275°
2026-04-21 18:14 41.13569 16.75732 136 ft 17 kts 249°
2026-04-21 18:14 41.13526 16.75572 138 ft 20 kts 250°
2026-04-21 18:14 41.13484 16.75424 141 ft 16 kts 249°
2026-04-21 18:15 41.13447 16.75296 140 ft 15 kts 248°
2026-04-21 18:15 41.13415 16.75188 143 ft 12 kts 249°
2026-04-21 18:15 41.13383 16.75085 147 ft 12 kts 247°
2026-04-21 18:15 41.13344 16.74971 147 ft 16 kts 241°
2026-04-21 18:16 41.13312 16.74859 147 ft 13 kts 264°
2026-04-21 18:16 41.13280 16.74697 151 ft 21 kts 250°
2026-04-21 18:16 41.13219 16.74486 152 ft 26 kts 247°
2026-04-21 18:16 41.13164 16.74299 152 ft 17 kts 250°
2026-04-21 18:17 41.13215 16.74132 146 ft 25 kts 311°
2026-04-21 18:17 41.13340 16.74218 146 ft 33 kts 70°
2026-04-21 18:17 41.13516 16.74859 137 ft 114 kts 69°
2026-04-21 18:17 41.13875 16.76127 246 ft 172 kts 70°
2026-04-21 18:18 41.14312 16.77681 1031 ft 187 kts 69°
2026-04-21 18:18 41.14774 16.79274 2158 ft 186 kts 67°
2026-04-21 18:18 41.15288 16.80910 2834 ft 202 kts 63°
2026-04-21 18:18 41.16271 16.82214 3527 ft 208 kts 20°
2026-04-21 18:19 41.17715 16.82332 3817 ft 223 kts 339°
2026-04-21 18:19 41.19204 16.81443 4077 ft 249 kts 332°
2026-04-21 18:19 41.20808 16.80433 4763 ft 259 kts 332°
2026-04-21 18:19 41.22457 16.79444 5688 ft 261 kts 333°
2026-04-21 18:20 41.24127 16.78490 6633 ft 262 kts 334°
2026-04-21 18:20 41.25820 16.77558 7483 ft 265 kts 334°
2026-04-21 18:20 41.27543 16.76634 8343 ft 269 kts 335°
2026-04-21 18:20 41.29294 16.75714 9195 ft 272 kts 335°
2026-04-21 18:21 41.31067 16.74795 10046 ft 275 kts 335°
2026-04-21 18:21 41.32900 16.73849 10505 ft 294 kts 335°
2026-04-21 18:21 41.34891 16.72824 10693 ft 319 kts 335°
2026-04-21 18:21 41.37041 16.71724 10884 ft 342 kts 336°
2026-04-21 18:22 41.39335 16.70554 11071 ft 364 kts 336°
2026-04-21 18:22 41.41744 16.69331 11480 ft 376 kts 336°
2026-04-21 18:22 41.44205 16.68084 12133 ft 380 kts 336°
2026-04-21 18:22 41.46680 16.66826 12867 ft 382 kts 335°
2026-04-21 18:23 41.49170 16.65557 13585 ft 384 kts 335°
2026-04-21 18:23 41.51601 16.64082 14191 ft 384 kts 326°
2026-04-21 18:23 41.53799 16.62059 14828 ft 383 kts 318°
2026-04-21 18:23 41.55733 16.59604 15453 ft 383 kts 309°
2026-04-21 18:24 41.57465 16.56956 16071 ft 385 kts 309°
2026-04-21 18:24 41.59222 16.54240 16665 ft 388 kts 308°
2026-04-21 18:24 41.60993 16.51504 17255 ft 391 kts 309°
2026-04-21 18:24 41.62780 16.48750 17828 ft 393 kts 309°
2026-04-21 18:25 41.64584 16.45981 18379 ft 396 kts 309°
2026-04-21 18:25 41.66398 16.43202 18889 ft 398 kts 309°
2026-04-21 18:25 41.68222 16.40411 19422 ft 399 kts 309°
2026-04-21 18:25 41.70055 16.37605 19928 ft 401 kts 309°
2026-04-21 18:26 41.71894 16.34790 20417 ft 403 kts 309°
2026-04-21 18:26 41.73742 16.31957 20898 ft 405 kts 309°
2026-04-21 18:26 41.75595 16.29113 21368 ft 406 kts 309°
2026-04-21 18:26 41.77458 16.26251 21825 ft 408 kts 309°
2026-04-21 18:27 41.79329 16.23376 22278 ft 410 kts 309°
2026-04-21 18:27 41.81204 16.20489 22710 ft 412 kts 309°
2026-04-21 18:27 41.83089 16.17585 23131 ft 414 kts 309°
2026-04-21 18:27 41.84984 16.14663 23534 ft 416 kts 309°
2026-04-21 18:28 41.86886 16.11727 23873 ft 418 kts 309°
2026-04-21 18:28 41.88794 16.08780 24266 ft 418 kts 309°
2026-04-21 18:28 41.90693 16.05831 24698 ft 417 kts 308°
2026-04-21 18:28 41.92425 16.02695 24993 ft 419 kts 302°
2026-04-21 18:29 41.93951 15.99343 25277 ft 421 kts 301°
2026-04-21 18:29 41.95460 15.95958 25575 ft 423 kts 300°
2026-04-21 18:29 41.96973 15.92560 25851 ft 425 kts 300°
2026-04-21 18:29 41.98496 15.89151 26134 ft 426 kts 300°
2026-04-21 18:30 42.00016 15.85763 26475 ft 425 kts 300°
2026-04-21 18:30 42.01525 15.82409 26862 ft 424 kts 301°
2026-04-21 18:30 42.03050 15.79027 27281 ft 422 kts 301°
2026-04-21 18:30 42.04571 15.75657 27687 ft 421 kts 300°
2026-04-21 18:31 42.06088 15.72294 28071 ft 420 kts 300°
2026-04-21 18:31 42.07603 15.68934 28451 ft 420 kts 300°
2026-04-21 18:31 42.09117 15.65572 28852 ft 418 kts 300°
2026-04-21 18:31 42.10627 15.62217 29217 ft 418 kts 300°
2026-04-21 18:32 42.12135 15.58860 29563 ft 419 kts 300°
2026-04-21 18:32 42.13641 15.55504 29933 ft 418 kts 300°
2026-04-21 18:32 42.15143 15.52153 30302 ft 416 kts 300°
2026-04-21 18:32 42.16639 15.48813 30634 ft 416 kts 300°
2026-04-21 18:33 42.18128 15.45484 31009 ft 413 kts 300°
2026-04-21 18:33 42.19604 15.42181 31498 ft 409 kts 300°
2026-04-21 18:33 42.21070 15.38896 31817 ft 408 kts 300°
2026-04-21 18:33 42.22534 15.35611 32091 ft 409 kts 300°
2026-04-21 18:34 42.24004 15.32310 32355 ft 410 kts 299°
2026-04-21 18:34 42.25468 15.29019 32648 ft 409 kts 299°
2026-04-21 18:34 42.26931 15.25725 32953 ft 408 kts 299°
2026-04-21 18:34 42.28390 15.22438 33263 ft 407 kts 299°
2026-04-21 18:35 42.29353 15.20265 33461 ft 407 kts 299°
2026-04-21 18:35 42.31276 15.15924 33853 ft 406 kts 299°
2026-04-21 18:35 42.32725 15.12647 34124 ft 406 kts 299°
2026-04-21 18:35 42.34171 15.09376 34320 ft 406 kts 299°
2026-04-21 18:36 42.35621 15.06089 34542 ft 406 kts 299°
2026-04-21 18:36 42.37067 15.02810 34755 ft 406 kts 299°
2026-04-21 18:36 42.38481 14.99599 34969 ft 406 kts 299°
2026-04-21 18:36 42.39926 14.96313 35181 ft 406 kts 299°
2026-04-21 18:37 42.41371 14.93026 35400 ft 406 kts 299°
2026-04-21 18:37 42.42812 14.89742 35655 ft 405 kts 299°
2026-04-21 18:37 42.44247 14.86469 35894 ft 404 kts 299°
2026-04-21 18:38 42.47133 14.79876 36009 ft 408 kts 299°
2026-04-21 18:38 42.50022 14.73261 35988 ft 406 kts 299°
2026-04-21 18:39 42.52394 14.67819 35990 ft 402 kts 299°
2026-04-21 18:39 42.55230 14.61298 35998 ft 400 kts 299°
2026-04-21 18:40 42.58053 14.54794 36000 ft 399 kts 299°
2026-04-21 18:40 42.60866 14.48298 36007 ft 399 kts 299°
2026-04-21 18:41 42.63679 14.41786 36010 ft 400 kts 299°
2026-04-21 18:41 42.66492 14.35262 36009 ft 401 kts 299°
2026-04-21 18:42 42.69311 14.28709 36004 ft 402 kts 299°
2026-04-21 18:42 42.72115 14.22175 36006 ft 403 kts 298°
2026-04-21 18:43 42.74937 14.15587 36007 ft 403 kts 299°
2026-04-21 18:43 42.77755 14.08990 36013 ft 403 kts 299°
2026-04-21 18:44 42.80585 14.02352 36002 ft 402 kts 299°
2026-04-21 18:44 42.83331 13.95897 36002 ft 402 kts 299°
2026-04-21 18:45 42.86126 13.89311 36010 ft 401 kts 299°
2026-04-21 18:45 42.88920 13.82714 35997 ft 401 kts 299°
2026-04-21 18:46 42.91702 13.76129 36012 ft 401 kts 298°
2026-04-21 18:46 42.94480 13.69538 36010 ft 400 kts 298°
2026-04-21 18:47 42.97252 13.62948 36011 ft 400 kts 298°
2026-04-21 18:47 43.00018 13.56358 36014 ft 400 kts 298°
2026-04-21 18:48 43.02782 13.49756 36003 ft 400 kts 298°
2026-04-21 18:48 43.05542 13.43147 36023 ft 400 kts 298°
2026-04-21 18:49 43.08300 13.36531 36012 ft 400 kts 298°
2026-04-21 18:49 43.10590 13.31024 36007 ft 400 kts 298°
2026-04-21 18:50 43.13803 13.23282 36010 ft 400 kts 298°
2026-04-21 18:50 43.16548 13.16652 36005 ft 400 kts 298°
2026-04-21 18:51 43.19284 13.10026 36002 ft 399 kts 298°
2026-04-21 18:51 43.22012 13.03405 35997 ft 399 kts 298°
2026-04-21 18:52 43.24711 12.96840 36010 ft 399 kts 298°
2026-04-21 18:52 43.27417 12.90242 36003 ft 399 kts 298°
2026-04-21 18:53 43.30138 12.83593 36006 ft 400 kts 298°
2026-04-21 18:53 43.32863 12.76918 35990 ft 401 kts 298°
2026-04-21 18:54 43.35586 12.70235 35988 ft 401 kts 298°
2026-04-21 18:54 43.38304 12.63548 35994 ft 400 kts 298°
2026-04-21 18:55 43.40553 12.58000 35998 ft 399 kts 298°
2026-04-21 18:55 43.43709 12.50198 36003 ft 399 kts 298°
2026-04-21 18:56 43.46408 12.43512 35999 ft 400 kts 298°
2026-04-21 18:56 43.49107 12.36808 35997 ft 400 kts 298°
2026-04-21 18:57 43.51798 12.30107 35997 ft 400 kts 298°
2026-04-21 18:57 43.54486 12.23399 36003 ft 400 kts 298°
2026-04-21 18:58 43.57168 12.16690 36000 ft 400 kts 298°
2026-04-21 18:58 43.59849 12.09968 36013 ft 400 kts 298°
2026-04-21 18:59 43.62526 12.03240 35974 ft 399 kts 298°
2026-04-21 18:59 43.65161 11.96602 35991 ft 398 kts 298°
2026-04-21 19:00 43.67822 11.89885 36004 ft 398 kts 298°
2026-04-21 19:00 43.70457 11.83214 35993 ft 398 kts 298°
2026-04-21 19:01 43.73108 11.76488 35996 ft 398 kts 298°
2026-04-21 19:01 43.75754 11.69760 35982 ft 398 kts 298°
2026-04-21 19:02 43.78396 11.63026 35984 ft 398 kts 298°
2026-04-21 19:02 43.81032 11.56290 35981 ft 398 kts 298°
2026-04-21 19:03 43.83667 11.49542 35987 ft 398 kts 298°
2026-04-21 19:03 43.86293 11.42793 35983 ft 398 kts 297°
2026-04-21 19:04 43.88921 11.36040 35984 ft 398 kts 297°
2026-04-21 19:04 43.91544 11.29273 35984 ft 398 kts 297°
2026-04-21 19:05 43.94155 11.22516 35914 ft 394 kts 297°
2026-04-21 19:05 43.95436 11.19197 35544 ft 387 kts 297°
2026-04-21 19:05 43.96705 11.15906 34922 ft 387 kts 297°
2026-04-21 19:05 43.97978 11.12600 34379 ft 386 kts 297°
2026-04-21 19:06 43.99205 11.09409 34212 ft 375 kts 297°
2026-04-21 19:06 44.01700 11.02915 34050 ft 388 kts 297°
2026-04-21 19:07 44.03704 10.95928 34004 ft 397 kts 288°
2026-04-21 19:07 44.05254 10.88575 33999 ft 393 kts 288°
2026-04-21 19:08 44.06790 10.81359 33915 ft 386 kts 288°
2026-04-21 19:08 44.07555 10.77788 33617 ft 386 kts 288°
2026-04-21 19:08 44.08327 10.74188 33359 ft 390 kts 288°
2026-04-21 19:08 44.09107 10.70550 33104 ft 394 kts 288°
2026-04-21 19:09 44.09891 10.66881 32836 ft 395 kts 288°
2026-04-21 19:09 44.10673 10.63213 32564 ft 395 kts 288°
2026-04-21 19:09 44.11454 10.59540 32302 ft 396 kts 288°
2026-04-21 19:09 44.12235 10.55867 32023 ft 396 kts 288°
2026-04-21 19:10 44.13015 10.52188 31797 ft 397 kts 288°
2026-04-21 19:10 44.13791 10.48507 31544 ft 397 kts 288°
2026-04-21 19:10 44.14563 10.44863 31281 ft 397 kts 288°
2026-04-21 19:10 44.15353 10.41128 31016 ft 397 kts 288°
2026-04-21 19:11 44.16120 10.37489 30758 ft 397 kts 288°
2026-04-21 19:11 44.16906 10.33747 30519 ft 397 kts 288°
2026-04-21 19:11 44.17665 10.30095 30241 ft 398 kts 287°
2026-04-21 19:11 44.18441 10.26337 29985 ft 399 kts 287°
2026-04-21 19:12 44.18949 10.23874 29802 ft 400 kts 287°
2026-04-21 19:12 44.19980 10.18877 29384 ft 402 kts 287°
2026-04-21 19:12 44.20753 10.15126 29091 ft 403 kts 287°
2026-04-21 19:12 44.21518 10.11410 28817 ft 404 kts 288°
2026-04-21 19:13 44.22515 10.07747 28540 ft 405 kts 295°
2026-04-21 19:13 44.23822 10.04274 28264 ft 406 kts 301°
2026-04-21 19:13 44.25444 10.01040 28009 ft 407 kts 305°
2026-04-21 19:13 44.27075 9.97912 27744 ft 408 kts 304°
2026-04-21 19:14 44.28744 9.94695 27488 ft 409 kts 304°
2026-04-21 19:14 44.30405 9.91471 27229 ft 409 kts 304°
2026-04-21 19:14 44.32064 9.88235 26972 ft 410 kts 304°
2026-04-21 19:14 44.33722 9.84990 26719 ft 410 kts 304°
2026-04-21 19:15 44.35378 9.81742 26409 ft 411 kts 304°
2026-04-21 19:15 44.37039 9.78479 26141 ft 412 kts 304°
2026-04-21 19:15 44.38697 9.75217 25917 ft 413 kts 304°
2026-04-21 19:15 44.40362 9.71939 25684 ft 414 kts 304°
2026-04-21 19:16 44.42032 9.68649 25429 ft 415 kts 304°
2026-04-21 19:16 44.43702 9.65357 25183 ft 414 kts 304°
2026-04-21 19:16 44.45373 9.62102 24979 ft 407 kts 306°
2026-04-21 19:16 44.47186 9.59182 24883 ft 389 kts 311°
2026-04-21 19:17 44.50730 9.54120 24613 ft 344 kts 312°
2026-04-21 19:17 44.52414 9.51816 24057 ft 336 kts 317°
2026-04-21 19:17 44.54332 9.49920 23210 ft 339 kts 324°
2026-04-21 19:18 44.56378 9.48235 22335 ft 344 kts 325°
2026-04-21 19:18 44.58435 9.46549 21866 ft 339 kts 325°
2026-04-21 19:18 44.60453 9.44882 21427 ft 335 kts 325°
2026-04-21 19:18 44.62455 9.43229 21093 ft 331 kts 325°
2026-04-21 19:19 44.64420 9.41595 20752 ft 323 kts 324°
2026-04-21 19:19 44.66293 9.40036 20638 ft 304 kts 324°
2026-04-21 19:19 44.68087 9.38536 20196 ft 297 kts 324°
2026-04-21 19:19 44.69861 9.37049 19580 ft 297 kts 324°
2026-04-21 19:20 44.71639 9.35556 18873 ft 298 kts 324°
2026-04-21 19:20 44.73406 9.34071 18319 ft 294 kts 324°
2026-04-21 19:20 44.75149 9.32599 17675 ft 290 kts 324°
2026-04-21 19:20 44.76887 9.31176 16909 ft 289 kts 326°
2026-04-21 19:21 44.78639 9.29745 16169 ft 292 kts 325°
2026-04-21 19:21 44.80372 9.28270 15602 ft 290 kts 324°
2026-04-21 19:21 44.82096 9.26799 15009 ft 290 kts 325°
2026-04-21 19:21 44.83827 9.25325 14397 ft 291 kts 325°
2026-04-21 19:22 44.85554 9.23857 13847 ft 289 kts 326°
2026-04-21 19:22 44.87279 9.22393 13191 ft 289 kts 326°
2026-04-21 19:22 44.88421 9.21425 12767 ft 290 kts 326°
2026-04-21 19:22 44.90147 9.19963 12177 ft 289 kts 327°
2026-04-21 19:23 44.91856 9.18516 11815 ft 280 kts 327°
2026-04-21 19:23 44.93481 9.17143 11647 ft 266 kts 327°
2026-04-21 19:23 44.95060 9.15805 11224 ft 264 kts 327°
2026-04-21 19:23 44.96636 9.14468 10729 ft 264 kts 327°
2026-04-21 19:24 44.98197 9.13143 10224 ft 260 kts 327°
2026-04-21 19:24 44.99726 9.11845 10066 ft 255 kts 327°
2026-04-21 19:24 45.01269 9.10534 9976 ft 262 kts 327°
2026-04-21 19:24 45.02820 9.09215 9797 ft 259 kts 328°
2026-04-21 19:25 45.04364 9.07902 9541 ft 260 kts 328°
2026-04-21 19:25 45.05932 9.06568 9305 ft 265 kts 328°
2026-04-21 19:25 45.07516 9.05219 9078 ft 265 kts 328°
2026-04-21 19:25 45.09074 9.03892 8836 ft 264 kts 328°
2026-04-21 19:26 45.10642 9.02555 8612 ft 262 kts 328°
2026-04-21 19:26 45.12203 9.01223 8379 ft 262 kts 328°
2026-04-21 19:26 45.13737 8.99913 8146 ft 263 kts 328°
2026-04-21 19:26 45.15305 8.98574 7869 ft 263 kts 329°
2026-04-21 19:27 45.16869 8.97237 7559 ft 260 kts 329°
2026-04-21 19:27 45.18398 8.95930 7265 ft 253 kts 329°
2026-04-21 19:27 45.19887 8.94656 7007 ft 246 kts 329°
2026-04-21 19:27 45.21346 8.93406 6754 ft 242 kts 329°
2026-04-21 19:28 45.22785 8.92173 6505 ft 241 kts 330°
2026-04-21 19:28 45.24227 8.90937 6257 ft 243 kts 330°
2026-04-21 19:28 45.25679 8.89693 6000 ft 244 kts 330°
2026-04-21 19:28 45.27129 8.88447 5755 ft 244 kts 330°
2026-04-21 19:29 45.28587 8.87195 5496 ft 245 kts 330°
2026-04-21 19:29 45.30046 8.85942 5241 ft 245 kts 331°
2026-04-21 19:29 45.31486 8.84703 4976 ft 239 kts 330°
2026-04-21 19:29 45.32890 8.83493 4723 ft 233 kts 331°
2026-04-21 19:30 45.34261 8.82313 4460 ft 228 kts 331°
2026-04-21 19:30 45.35596 8.81170 4225 ft 220 kts 334°
2026-04-21 19:30 45.37011 8.80521 3980 ft 211 kts 354°
2026-04-21 19:30 45.38450 8.80177 3745 ft 207 kts 352°
2026-04-21 19:31 45.39830 8.79789 3486 ft 202 kts 352°
2026-04-21 19:31 45.41195 8.79404 3285 ft 198 kts 352°
2026-04-21 19:31 45.42547 8.79027 3117 ft 198 kts 353°
2026-04-21 19:31 45.43897 8.78653 3021 ft 200 kts 353°
2026-04-21 19:32 45.45282 8.78270 3010 ft 204 kts 352°
2026-04-21 19:32 45.46678 8.77882 3004 ft 204 kts 352°
2026-04-21 19:32 45.48048 8.77500 2985 ft 197 kts 352°
2026-04-21 19:32 45.49384 8.77127 2925 ft 195 kts 352°
2026-04-21 19:33 45.50260 8.76869 2732 ft 193 kts 352°
2026-04-21 19:33 45.51929 8.76356 2402 ft 172 kts 352°
2026-04-21 19:33 45.53062 8.76030 2159 ft 159 kts 353°
2026-04-21 19:33 45.54091 8.75737 2002 ft 144 kts 353°
2026-04-21 19:34 45.55049 8.75470 1810 ft 137 kts 354°
2026-04-21 19:34 45.55985 8.75224 1631 ft 137 kts 353°
2026-04-21 19:34 45.56918 8.74978 1462 ft 135 kts 353°
2026-04-21 19:34 45.57865 8.74738 1284 ft 143 kts 352°
2026-04-21 19:35 45.58874 8.74461 1153 ft 149 kts 352°
2026-04-21 19:35 45.60850 8.73937 849 ft 140 kts 351°
2026-04-21 19:35 45.61769 8.73680 727 ft 130 kts 353°
2026-04-21 19:36 45.62569 8.73481 718 ft 96 kts 349°
2026-04-21 19:36 45.63027 8.73331 714 ft 40 kts 336°
2026-04-21 19:36 45.63213 8.73150 714 ft 26 kts 313°
2026-04-21 19:36 45.63300 8.72979 716 ft 19 kts 304°
2026-04-21 19:37 45.63360 8.72853 718 ft 14 kts 304°
2026-04-21 19:37 45.63399 8.72742 716 ft 11 kts 284°
2026-04-21 19:37 45.63402 8.72622 719 ft 13 kts 264°
2026-04-21 19:37 45.63385 8.72459 717 ft 20 kts 260°
2026-04-21 19:38 45.63355 8.72243 716 ft 24 kts 256°
2026-04-21 19:38 45.63323 8.72019 716 ft 21 kts 258°
2026-04-21 19:38 45.63295 8.71809 716 ft 22 kts 259°
2026-04-21 19:38 45.63227 8.71676 715 ft 17 kts 172°
2026-04-21 19:39 45.63093 8.71712 719 ft 21 kts 169°
2026-04-21 19:39 45.62938 8.71754 717 ft 24 kts 169°
2026-04-21 19:39 45.62813 8.71787 715 ft 11 kts 178°
2026-04-21 19:39 45.62778 8.71732 715 ft 6 kts 263°
2026-04-21 19:40 45.62774 8.71691 715 ft 3 kts 259°
2026-04-21 19:40 45.62772 8.71675 715 ft 0 kts 259°